Sioralik

KL  EN  DA
ASIAQ
Weather Now GREENLAND SURVEY
Updated [WGT/WGST] Temperature [°C] Wind [m/s] Air pressure [hPa] Relative humidity [%] Precipitation [mm]
Present Wind chill Speed Max
18.04 01:00-8,8-18,810,3 ⇐11,8101761n/a
18.04 00:00-8,4-18,19,8 ⇐11,3101765n/a
17.04 23:00-8,7-18,29,3 ⇐10,8101758n/a
17.04 22:00-8,5-18,09,3 ⇐10,8101761n/a
17.04 21:00-8,4-17,68,8 ⇐10,3101765n/a
17.04 20:00n/an/an/an/an/an/an/a
17.04 19:00-8,4-16,56,7 ⇐8,2101756n/a
17.04 18:00-8,2-16,67,2 ⇐8,8101658n/a
17.04 17:00-8,2-16,06,2 ⇐8,2101652n/a
17.04 16:00-8,4-17,17,7 ⇐9,3101563n/a
17.04 15:00-8,6-16,56,2 ⇐7,7101556n/a
17.04 14:00-8,7-16,96,7 ⇐8,2101559n/a
17.04 13:00-9,1-17,46,7 ⇐8,8101462n/a
17.04 12:00-9,6-18,16,7 ⇐8,2101464n/a
17.04 11:00-9,4-18,17,2 ⇐8,2101466n/a
17.04 10:00-10,0-17,95,7 ⇐7,2101366n/a
17.04 09:00-10,0-16,74,1 ⇐6,2101366n/a
17.04 08:00-10,2-18,25,7 ⇐7,2101372n/a
17.04 07:00-10,8-18,55,1 ⇙6,2101275n/a
17.04 06:00-11,0-18,34,6 ⇐6,2101276n/a
17.04 05:00-11,1-17,53,6 ⇙5,1101172n/a
17.04 04:00-11,2-18,64,6 ⇙5,7101176n/a
17.04 03:00-11,3-16,52,6 ⇐3,6101079n/a
17.04 02:00-11,2-16,42,6 ⇙4,1101065n/a
17.04 01:00-10,9-17,84,1 ⇙5,1101064n/a
Position: (65.01305556,-52.52861111)

[Back]